Weather in Scranton

United States     41°24′22″N   75°39′42″W
temp.,
°C
wind,
m/s
gust,
m/s
humid.,
%
clouds,
%
prec.,
mm/h
press.,
hPa
HPBL,
m
7 may, fri
fri723:00+5nne1172100 0.0 101729
02:00+3n117563 0.0 101615
05:00+1nne117687 0.0 101516
08:00+6ene125468 0.0 1014196
11:00+13se234295 0.0 10121398
14:00+13se2450100 0.1 10101643
17:00+10sw0187100 1.1 1010107
20:00+8se1394100 3.1 101092
8 may, sat
sat823:00+7w1498100 4.4 1009342
02:00+6n1199100 13.2 1009117
05:00+4nw2498100 9.7 1009412
08:00+3nnw2698100 12.7 1012525
11:00+4n2798100 0.2 1012642
14:00+5n2697100 0.6 1013828
17:00+7nw378893 0.2 1014936
20:00+6wnw11925 0.5 101510
9 may, sun
sun923:00+4sw119791 0.0 101810
02:00+3wsw229799 0.0 101848
05:00+2sw119799 0.0 101810
08:00+5ssw019199 0.0 1019187
11:00+11s2461100 0.0 10161204
14:00+9sw4684100 0.5 10151046
17:00+5sse2997100 6.8 1014818
20:00+6se31197100 10.0 1010702
10 may, mon
mon1023:00+7se2698100 4.3 1006309
02:00+8nw13100100 6.3 1005137
05:00+6wnw2899100 1.3 1007449
08:00+6nw3897100 1.4 1010663
11:00+7nw3794100 0.1 1012865
14:00+12wnw475541 0.3 10121526
17:00+15nw5943100 0.0 10112388
20:00+9nnw3869100 0.0 1015355
11 may, tue
tue1123:00+5nw31087100 0.0 1017591
02:00+4nw31188100 0.0 1018605
05:00+2nw4128159 0.0 1018648
08:00+4nw511715 0.0 1019732
11:00+9nw6104444 0.0 10191882
14:00+12nw71234100 0.0 10172963
17:00+10nw7125210 0.2 10172319
20:00+6nw6156884 0.4 10191684